Content
SEND FEEDBACK

Daily
Averages
Monthly
Summary
India

TRIVANDRUM, INDIA


Home > Asia > India
Elevation: 205 feet     Latitude: 08 29N     Longitude: 076 57E

WEATHER
 
SELECT A DAY
Number of Records: 117,353;   Date Range: 7/1/96 - 10/23/14
 
SHARE

PRINT THIS DATA

[ ← Previous Day ]
WEATHER ALMANAC - JANUARY 31, 2013
[ Next Day → ]
[ °C ]   °F
Weather ElementAverageHighLow
Temperature82 °F87.8 °F (12:10 pm)75.2 °F (6:10 am)
Dewpoint70.5 °F73.4 °F (1:10 pm)68 °F (3:10 pm)
Humidity68.8 %83 % (2:40 am)52 % (3:10 pm)
Barometer29.85 in29.92 in (10:10 am)29.80 in (3:10 pm)
Wind Speed1.9 mph8.1 mph (12:10 pm)
Weather ElementAverage
Visibility3 mi
Wind DirectionE (86.1 °)

Weather ElementTotal
Precipitation---
Cooling Degree Days16.5 (Base 65)
Growing Degree Days31.5 (Base 50)
Averaged from 28 records on January 31, 2013
WEATHER CONDITIONS BREAKOUT
WIND DIRECTION BREAKOUT
WEATHER BY HOUR - JANUARY 31, 2013
[ °C ]   °F
Local TimeTemperatureDewpointHumidityBarometerVisibilityWind DirectionWind SpeedGust SpeedPrecipitationEventsConditions
12:40 AM78.8 °F71.6 °F78 %29.86 in2.5 miCalmHaze
1:10 AM78.8 °F71.6 °F78 %29.86 in2.5 miCalmHaze
1:40 AM78.8 °F71.6 °F78 %29.86 in2.5 miCalmHaze
2:10 AM78.8 °F71.6 °F78 %29.83 in2.5 miCalmHaze
2:40 AM77.0 °F71.6 °F83 %29.83 in2.5 miCalmHaze
3:40 AM77.0 °F69.8 °F78 %29.83 in2.5 miCalmHaze
4:10 AM77.0 °F69.8 °F78 %29.83 in1.9 miCalmHaze
5:10 AM77.0 °F69.8 °F78 %29.83 in1.9 miCalmHaze
5:40 AM77.0 °F71.6 °F83 %29.83 in1.9 miCalmHaze
6:10 AM75.2 °F69.8 °F83 %29.83 in1.9 miCalmHaze
7:10 AM75.2 °F69.8 °F83 %29.86 in1.2 miCalmMist
7:40 AM77.0 °F69.8 °F78 %29.89 in1.9 miCalmHaze
8:10 AM78.8 °F69.8 °F74 %29.89 in2.5 miCalmHaze
10:10 AM86.0 °F71.6 °F62 %29.92 in3.7 miCalmPartly Cloudy
11:10 AM86.0 °F71.6 °F62 %29.92 in3.7 miWest (270°)3.5 mphPartly Cloudy
12:10 PM87.8 °F71.6 °F58 %29.89 in3.7 miWNW (300°)8.1 mphPartly Cloudy
1:10 PM87.8 °F73.4 °F62 %29.86 in3.7 miWest (260°)6.9 mphPartly Cloudy
2:10 PM87.8 °F71.6 °F58 %29.83 in3.7 miWest (270°)8.1 mphPartly Cloudy
2:40 PM87.8 °F69.8 °F55 %29.83 in5.0 miWSW (240°)6.9 mph
3:10 PM87.8 °F68.0 °F52 %29.80 in5.0 miWest (260°)6.9 mph
4:10 PM87.8 °F69.8 °F55 %29.80 in5.0 miWest (260°)5.8 mph
4:40 PM86.0 °F68.0 °F55 %29.80 in5.0 miWest (280°)4.6 mph
5:10 PM87.8 °F71.6 °F58 %29.80 in5.0 miWest (270°)3.5 mphClear
6:10 PM86.0 °F69.8 °F58 %29.80 in3.7 miCalmClear
7:10 PM84.2 °F69.8 °F62 %29.83 in2.5 miCalmHaze
8:10 PM84.2 °F69.8 °F62 %29.86 in2.5 miCalmHaze
8:40 PM82.4 °F69.8 °F66 %29.86 in2.5 miCalmHaze
10:10 PM80.6 °F69.8 °F70 %29.89 in1.9 miCalmHaze
Hourly data recorded from VOTV, located miles away from Trivandrum, India







STORIES FROM OUR PARTNERS